This demonstration page uses our WeatherBlox Daily Observations layout. Learn more.

Left ArrowRight Arrow

Hourly Observations for November 16, 2022

Temp ( °F °C ) Dew Point ( °F °C ) Humidity (%) Winds ( mph kmh ) Pressure ( in mb ) Visibility ( mi km ) Precip ( " mm )
12:30 am 00:30 Cloudy with Light Snow 25 -4 14 -10 63 63 NW 16 26 30.40 1030 10 16 0.00 0.00
12:55 am 00:55 Cloudy with Light Snow 24 -4.2 14 -10.2 63 63 NW 16 26 30.40 1030 10 16 0.01 0.13
1:55 am 01:55 Cloudy with Light Snow 24 -4.5 15 -9.3 69 69 WNW 15 24 30.40 1030 8 13 0.01 0.13
2:10 am 02:10 Cloudy with Light Snow 23 -5 16 -9 73 73 WNW 18 30 30.41 1030 2 4 0.00 0.00
2:25 am 02:25 Cloudy with Light Snow 23 -5 18 -8 79 79 WNW 18 30 30.41 1030 4 6 0.00 0.00
2:55 am 02:55 Cloudy with Light Snow 23 -4.9 16 -9 73 73 WNW 18 30 30.41 1030 7 11 0.01 0.13
3:55 am 03:55 Cloudy with Light Snow 23 -4.9 15 -9.4 71 71 WNW 18 30 30.41 1030 10 16 0.01 0.13
4:55 am 04:55 Cloudy with Light Snow 22 -5.3 14 -10.1 69 69 NW 18 30 30.42 1030 10 16 0.01 0.13
6:55 am 06:55 Partly Cloudy 20 -6.8 11 -11.4 70 70 NW 18 30 30.44 1031 10 16 0.00 0.00
7:25 am 07:25 Partly Cloudy with Isolated Snow Showers 19 -7 12 -11 73 73 WNW 15 24 30.44 1031 10 16 0.00 0.00
7:55 am 07:55 Partly Cloudy with Scattered Snow Showers 20 -6.8 12 -11.2 71 71 WNW 17 28 30.45 1031 10 16 0.00 0.00
8:40 am 08:40 Mostly Cloudy with Light Snow 21 -6 12 -11 68 68 NW 15 24 30.45 1031 10 16 0.00 0.00
8:55 am 08:55 Cloudy with Light Snow 21 -6 13 -10.8 69 69 NW 17 28 30.45 1031 10 16 0.01 0.13
9:55 am 09:55 Cloudy with Light Snow 23 -5.1 13 -10.7 65 65 NW 16 26 30.47 1032 10 16 0.00 0.00
10:55 am 10:55 Mostly Cloudy 25 -3.8 12 -11.1 57 57 NW 17 28 30.47 1032 10 16 0.00 0.00
11:55 am 11:55 Partly Cloudy 28 -2.5 12 -11 52 52 NW 15 24 30.45 1031 10 16 0.00 0.00
12:55 pm 12:55 Partly Cloudy 28 -2.4 12 -10.9 52 52 WNW 16 26 30.44 1031 10 16 0.00 0.00
1:55 pm 13:55 Mostly Sunny 29 -1.7 12 -11 49 49 NW 18 30 30.43 1030 10 16 0.00 0.00
2:55 pm 14:55 Sunny 30 -1.3 12 -10.9 48 48 WNW 15 24 30.42 1030 10 16 0.00 0.00
3:55 pm 15:55 Mostly Sunny 29 -1.4 12 -11.3 47 47 NW 10 17 30.42 1030 10 16 0.00 0.00
4:55 pm 16:55 Mostly Sunny 28 -2.3 11 -11.8 48 48 WNW 8 13 30.42 1030 10 16 0.00 0.00
5:55 pm 17:55 Clear 26 -3.3 10 -12.3 50 50 WNW 5 7 30.42 1030 10 16 0.00 0.00
6:55 pm 18:55 Clear 24 -4.5 10 -12.2 55 55 Calm 30.42 1030 10 16 0.00 0.00
7:55 pm 19:55 Clear 24 -4.7 10 -12.4 55 55 Calm 30.40 1030 10 16 0.00 0.00
8:55 pm 20:55 Mostly Cloudy 22 -5.5 10 -12.3 59 59 Calm 30.39 1029 10 16 0.00 0.00
9:55 pm 21:55 Cloudy 21 -5.9 12 -10.9 68 68 Calm 30.38 1029 10 16 0.00 0.00
10:55 pm 22:55 Cloudy 22 -5.5 12 -11.1 65 65 Calm 30.36 1028 10 16 0.00 0.00
11:55 pm 23:55 Cloudy 24 -4.2 13 -10.6 61 61 Calm 30.35 1028 10 16 0.00 0.00

Powered by AerisWeather